Time,TemperatureF,DewpointF,PressureIn,WindDirection,WindDirectionDegrees,WindSpeedMPH,WindSpeedGustMPH,Humidity,HourlyPrecipIn,Conditions,Clouds,dailyrainin,SoftwareType,DateUTC
2013-02-23 00:00:00,26.0,19.0,30.16,NW,319,0.0,1.0,74,0.00,,,0.00,weatherlink.com 1.10,2013-02-23 06:00:00,
2013-02-23 00:15:00,25.8,19.0,30.16,NW,319,0.0,2.0,74,0.00,,,0.00,weatherlink.com 1.10,2013-02-23 06:15:00,
2013-02-23 00:30:00,25.4,18.0,30.15,NW,319,0.0,4.0,74,0.00,,,0.00,weatherlink.com 1.10,2013-02-23 06:30:00,
2013-02-23 00:46:00,25.1,18.0,30.15,NW,319,0.0,1.0,75,0.00,,,0.00,weatherlink.com 1.10,2013-02-23 06:46:00,
2013-02-23 01:01:00,24.5,18.0,30.15,NW,319,0.0,0.0,76,0.00,,,0.00,weatherlink.com 1.10,2013-02-23 07:01:00,
2013-02-23 01:16:00,24.4,18.0,30.15,NW,319,0.0,0.0,77,0.00,,,0.00,weatherlink.com 1.10,2013-02-23 07:16:00,
2013-02-23 01:31:00,24.1,18.0,30.15,NW,319,0.0,0.0,78,0.00,,,0.00,weatherlink.com 1.10,2013-02-23 07:31:00,
2013-02-23 01:46:00,23.9,18.0,30.14,NW,319,0.0,0.0,79,0.00,,,0.00,weatherlink.com 1.10,2013-02-23 07:46:00,
2013-02-23 02:01:00,23.6,18.0,30.15,NW,319,0.0,0.0,80,0.00,,,0.00,weatherlink.com 1.10,2013-02-23 08:01:00,
2013-02-23 02:16:00,23.3,18.0,30.14,NW,319,0.0,0.0,81,0.00,,,0.00,weatherlink.com 1.10,2013-02-23 08:16:00,
2013-02-23 02:31:00,23.2,18.0,30.14,NW,319,0.0,1.0,81,0.00,,,0.00,weatherlink.com 1.10,2013-02-23 08:31:00,
2013-02-23 02:46:00,23.0,18.0,30.14,NW,319,0.0,3.0,81,0.00,,,0.00,weatherlink.com 1.10,2013-02-23 08:46:00,
2013-02-23 03:01:00,22.9,18.0,30.13,NNW,343,0.0,5.0,82,0.00,,,0.00,weatherlink.com 1.10,2013-02-23 09:01:00,
2013-02-23 03:16:00,22.6,18.0,30.13,NNW,343,0.0,0.0,83,0.00,,,0.00,weatherlink.com 1.10,2013-02-23 09:16:00,
2013-02-23 03:31:00,22.3,18.0,30.12,NNW,344,0.0,1.0,83,0.00,,,0.00,weatherlink.com 1.10,2013-02-23 09:31:00,
2013-02-23 03:46:00,22.1,18.0,30.11,NNW,344,0.0,2.0,84,0.00,,,0.00,weatherlink.com 1.10,2013-02-23 09:46:00,
2013-02-23 04:01:00,21.8,18.0,30.09,North,360,0.0,3.0,84,0.00,,,0.00,weatherlink.com 1.10,2013-02-23 10:01:00,
2013-02-23 04:16:00,23.3,20.0,30.09,North,-999,0.0,0.0,85,0.00,,,0.00,weatherlink.com 1.10,2013-02-23 10:16:00,
2013-02-23 04:31:00,22.9,21.0,30.09,North,-999,0.0,0.0,92,0.00,,,0.00,weatherlink.com 1.10,2013-02-23 10:31:00,
2013-02-23 04:46:00,22.6,19.0,30.09,North,-999,0.0,0.0,85,0.00,,,0.00,weatherlink.com 1.10,2013-02-23 10:46:00,
2013-02-23 05:01:00,22.4,19.0,30.09,North,-999,0.0,0.0,86,0.00,,,0.00,weatherlink.com 1.10,2013-02-23 11:01:00,
2013-02-23 05:16:00,20.7,17.0,30.10,North,360,0.0,0.0,84,0.00,,,0.00,weatherlink.com 1.10,2013-02-23 11:16:00,
2013-02-23 05:31:00,20.6,17.0,30.09,North,360,0.0,0.0,85,0.00,,,0.00,weatherlink.com 1.10,2013-02-23 11:31:00,
2013-02-23 05:46:00,20.5,17.0,30.09,North,360,0.0,0.0,85,0.00,,,0.00,weatherlink.com 1.10,2013-02-23 11:46:00,
2013-02-23 06:01:00,20.4,17.0,30.10,North,360,0.0,0.0,85,0.00,,,0.00,weatherlink.com 1.10,2013-02-23 12:01:00,
2013-02-23 06:16:00,20.4,17.0,30.10,North,360,0.0,0.0,85,0.00,,,0.00,weatherlink.com 1.10,2013-02-23 12:16:00,
2013-02-23 06:31:00,20.1,16.0,30.09,North,360,0.0,0.0,85,0.00,,,0.00,weatherlink.com 1.10,2013-02-23 12:31:00,
2013-02-23 06:46:00,20.0,17.0,30.10,North,360,0.0,0.0,86,0.00,,,0.00,weatherlink.com 1.10,2013-02-23 12:46:00,
2013-02-23 07:01:00,19.6,16.0,30.10,North,360,0.0,0.0,86,0.00,,,0.00,weatherlink.com 1.10,2013-02-23 13:01:00,
2013-02-23 07:16:00,19.5,16.0,30.09,North,360,0.0,0.0,87,0.00,,,0.00,weatherlink.com 1.10,2013-02-23 13:16:00,
2013-02-23 07:31:00,19.8,17.0,30.10,North,360,0.0,0.0,87,0.00,,,0.00,weatherlink.com 1.10,2013-02-23 13:31:00,
2013-02-23 07:46:00,20.2,17.0,30.09,North,360,0.0,0.0,87,0.00,,,0.00,weatherlink.com 1.10,2013-02-23 13:46:00,
2013-02-23 08:01:00,21.4,18.0,30.10,North,360,0.0,0.0,86,0.00,,,0.00,weatherlink.com 1.10,2013-02-23 14:01:00,
2013-02-23 08:16:00,22.2,18.0,30.10,North,360,0.0,2.0,84,0.00,,,0.00,weatherlink.com 1.10,2013-02-23 14:16:00,
2013-02-23 08:31:00,22.9,19.0,30.11,North,360,0.0,3.0,83,0.00,,,0.00,weatherlink.com 1.10,2013-02-23 14:31:00,
2013-02-23 08:46:00,23.9,19.0,30.11,North,360,2.0,3.0,81,0.00,,,0.00,weatherlink.com 1.10,2013-02-23 14:46:00,
2013-02-23 09:01:00,24.9,19.0,30.11,North,5,0.0,5.0,79,0.00,,,0.00,weatherlink.com 1.10,2013-02-23 15:01:00,
2013-02-23 09:16:00,26.0,20.0,30.11,NE,34,0.0,4.0,79,0.00,,,0.00,weatherlink.com 1.10,2013-02-23 15:16:00,
2013-02-23 09:31:00,27.3,20.0,30.11,NE,34,0.0,3.0,75,0.00,,,0.00,weatherlink.com 1.10,2013-02-23 15:31:00,
2013-02-23 09:46:00,29.0,21.0,30.11,NE,34,0.0,2.0,71,0.00,,,0.00,weatherlink.com 1.10,2013-02-23 15:46:00,
2013-02-23 10:01:00,29.7,20.0,30.11,ESE,123,2.0,4.0,67,0.00,,,0.00,weatherlink.com 1.10,2013-02-23 16:01:00,
2013-02-23 10:16:00,29.3,19.0,30.11,ESE,123,0.0,3.0,65,0.00,,,0.00,weatherlink.com 1.10,2013-02-23 16:16:00,
2013-02-23 10:31:00,31.1,21.0,30.11,SSE,150,3.0,6.0,65,0.00,,,0.00,weatherlink.com 1.10,2013-02-23 16:31:00,
2013-02-23 10:47:00,31.5,20.0,30.12,SSE,148,2.0,3.0,62,0.00,,,0.00,weatherlink.com 1.10,2013-02-23 16:47:00,
2013-02-23 11:02:00,32.6,20.0,30.12,SSE,148,0.0,0.0,59,0.00,,,0.00,weatherlink.com 1.10,2013-02-23 17:02:00,
2013-02-23 11:17:00,34.2,21.0,30.11,SSE,148,0.0,4.0,59,0.00,,,0.00,weatherlink.com 1.10,2013-02-23 17:17:00,
2013-02-23 11:32:00,35.8,21.0,30.11,SW,230,2.0,5.0,55,0.00,,,0.00,weatherlink.com 1.10,2013-02-23 17:32:00,
2013-02-23 11:47:00,35.2,20.0,30.11,SW,224,0.0,4.0,55,0.00,,,0.00,weatherlink.com 1.10,2013-02-23 17:47:00,
2013-02-23 12:02:00,35.7,21.0,30.11,WSW,258,0.0,3.0,55,0.00,,,0.00,weatherlink.com 1.10,2013-02-23 18:02:00,
2013-02-23 12:17:00,36.6,22.0,30.10,SSW,212,7.0,8.0,55,0.00,,,0.00,weatherlink.com 1.10,2013-02-23 18:17:00,
2013-02-23 12:32:00,36.3,21.0,30.09,South,184,0.0,6.0,55,0.00,,,0.00,weatherlink.com 1.10,2013-02-23 18:32:00,
2013-02-23 12:47:00,36.8,20.0,30.09,South,184,0.0,6.0,51,0.00,,,0.00,weatherlink.com 1.10,2013-02-23 18:47:00,
2013-02-23 13:02:00,37.9,21.0,30.07,SE,136,5.0,8.0,50,0.00,,,0.00,weatherlink.com 1.10,2013-02-23 19:02:00,
2013-02-23 13:17:00,40.0,21.0,30.07,South,175,3.0,4.0,47,0.00,,,0.00,weatherlink.com 1.10,2013-02-23 19:17:00,
2013-02-23 13:32:00,39.1,19.0,30.05,South,186,0.0,8.0,44,0.00,,,0.00,weatherlink.com 1.10,2013-02-23 19:32:00,
2013-02-23 13:47:00,40.0,21.0,30.04,South,170,0.0,5.0,47,0.00,,,0.00,weatherlink.com 1.10,2013-02-23 19:47:00,
2013-02-23 14:02:00,40.6,22.0,30.04,NW,322,2.0,4.0,48,0.00,,,0.00,weatherlink.com 1.10,2013-02-23 20:02:00,
2013-02-23 14:17:00,40.2,21.0,30.03,North,355,0.0,5.0,46,0.00,,,0.00,weatherlink.com 1.10,2013-02-23 20:17:00,
2013-02-23 14:32:00,41.1,21.0,30.02,North,349,0.0,4.0,45,0.00,,,0.00,weatherlink.com 1.10,2013-02-23 20:32:00,
2013-02-23 14:47:00,42.0,22.0,30.01,SSW,196,3.0,6.0,46,0.00,,,0.00,weatherlink.com 1.10,2013-02-23 20:47:00,
2013-02-23 15:02:00,42.4,22.0,30.00,SSW,196,0.0,3.0,45,0.00,,,0.00,weatherlink.com 1.10,2013-02-23 21:02:00,
2013-02-23 15:17:00,43.1,22.0,29.99,NW,314,0.0,4.0,44,0.00,,,0.00,weatherlink.com 1.10,2013-02-23 21:17:00,
2013-02-23 15:32:00,43.4,22.0,29.99,NW,314,0.0,3.0,43,0.00,,,0.00,weatherlink.com 1.10,2013-02-23 21:32:00,
2013-02-23 15:47:00,42.9,23.0,29.99,NNW,334,3.0,5.0,45,0.00,,,0.00,weatherlink.com 1.10,2013-02-23 21:47:00,
2013-02-23 16:02:00,43.2,22.0,29.99,NNW,334,0.0,0.0,43,0.00,,,0.00,weatherlink.com 1.10,2013-02-23 22:02:00,
2013-02-23 16:17:00,43.4,22.0,29.99,NE,48,0.0,3.0,43,0.00,,,0.00,weatherlink.com 1.10,2013-02-23 22:17:00,
2013-02-23 16:32:00,44.6,23.0,29.99,SE,127,0.0,1.0,43,0.00,,,0.00,weatherlink.com 1.10,2013-02-23 22:32:00,
2013-02-23 16:47:00,43.2,22.0,29.99,NNE,31,0.0,4.0,44,0.00,,,0.00,weatherlink.com 1.10,2013-02-23 22:47:00,
2013-02-23 17:02:00,43.4,23.0,29.99,NNE,31,0.0,3.0,44,0.00,,,0.00,weatherlink.com 1.10,2013-02-23 23:02:00,
2013-02-23 17:17:00,43.0,22.0,29.98,SE,134,0.0,2.0,44,0.00,,,0.00,weatherlink.com 1.10,2013-02-23 23:17:00,
2013-02-23 17:32:00,43.0,23.0,29.98,SE,134,1.0,2.0,45,0.00,,,0.00,weatherlink.com 1.10,2013-02-23 23:32:00,
2013-02-23 17:47:00,42.8,23.0,29.98,SE,134,0.0,0.0,45,0.00,,,0.00,weatherlink.com 1.10,2013-02-23 23:47:00,
2013-02-23 18:02:00,41.4,24.0,29.98,SE,134,0.0,0.0,50,0.00,,,0.00,weatherlink.com 1.10,2013-02-24 00:02:00,
2013-02-23 18:17:00,40.7,25.0,29.99,SE,134,0.0,0.0,53,0.00,,,0.00,weatherlink.com 1.10,2013-02-24 00:17:00,
2013-02-23 18:32:00,39.6,25.0,30.00,SE,134,0.0,0.0,56,0.00,,,0.00,weatherlink.com 1.10,2013-02-24 00:32:00,
2013-02-23 18:47:00,38.5,25.0,29.99,SE,134,0.0,0.0,59,0.00,,,0.00,weatherlink.com 1.10,2013-02-24 00:47:00,
2013-02-23 19:02:00,37.9,25.0,30.00,SE,134,0.0,1.0,59,0.00,,,0.00,weatherlink.com 1.10,2013-02-24 01:02:00,
2013-02-23 19:17:00,37.4,24.0,29.99,SE,134,0.0,2.0,60,0.00,,,0.00,weatherlink.com 1.10,2013-02-24 01:17:00,
2013-02-23 19:32:00,37.1,25.0,29.98,SE,134,0.0,2.0,62,0.00,,,0.00,weatherlink.com 1.10,2013-02-24 01:32:00,
2013-02-23 19:47:00,37.0,25.0,29.98,SE,134,0.0,0.0,62,0.00,,,0.00,weatherlink.com 1.10,2013-02-24 01:47:00,
2013-02-23 20:03:00,36.3,25.0,29.98,SE,134,0.0,0.0,64,0.00,,,0.00,weatherlink.com 1.10,2013-02-24 02:03:00,
2013-02-23 20:17:00,35.7,25.0,29.98,SE,134,0.0,0.0,64,0.00,,,0.00,weatherlink.com 1.10,2013-02-24 02:17:00,
2013-02-23 20:32:00,34.6,25.0,29.98,SE,134,0.0,0.0,68,0.00,,,0.00,weatherlink.com 1.10,2013-02-24 02:32:00,
2013-02-23 20:47:00,34.5,25.0,29.99,SE,134,0.0,0.0,67,0.00,,,0.00,weatherlink.com 1.10,2013-02-24 02:47:00,
2013-02-23 21:02:00,34.5,25.0,29.99,SE,134,0.0,0.0,67,0.00,,,0.00,weatherlink.com 1.10,2013-02-24 03:02:00,
2013-02-23 21:17:00,34.1,25.0,29.99,SE,134,0.0,0.0,69,0.00,,,0.00,weatherlink.com 1.10,2013-02-24 03:17:00,
2013-02-23 21:32:00,34.3,25.0,30.00,SE,134,0.0,0.0,68,0.00,,,0.00,weatherlink.com 1.10,2013-02-24 03:32:00,
2013-02-23 21:47:00,34.6,25.0,29.99,SE,134,0.0,0.0,67,0.00,,,0.00,weatherlink.com 1.10,2013-02-24 03:47:00,
2013-02-23 22:03:00,34.2,25.0,29.99,SE,134,0.0,0.0,68,0.00,,,0.00,weatherlink.com 1.10,2013-02-24 04:03:00,
2013-02-23 22:18:00,34.6,25.0,29.99,SE,134,0.0,0.0,67,0.00,,,0.00,weatherlink.com 1.10,2013-02-24 04:18:00,
2013-02-23 22:33:00,33.6,24.0,29.99,SE,134,0.0,0.0,68,0.00,,,0.00,weatherlink.com 1.10,2013-02-24 04:33:00,
2013-02-23 22:48:00,33.2,24.0,29.99,SE,134,0.0,0.0,70,0.00,,,0.00,weatherlink.com 1.10,2013-02-24 04:48:00,
2013-02-23 23:03:00,33.4,24.0,29.99,SE,134,0.0,0.0,69,0.00,,,0.00,weatherlink.com 1.10,2013-02-24 05:03:00,
2013-02-23 23:18:00,33.2,24.0,29.98,SE,134,0.0,0.0,69,0.00,,,0.00,weatherlink.com 1.10,2013-02-24 05:18:00,
2013-02-23 23:33:00,33.1,24.0,29.98,SE,134,0.0,0.0,69,0.00,,,0.00,weatherlink.com 1.10,2013-02-24 05:33:00,
2013-02-23 23:48:00,33.5,24.0,29.99,SE,134,0.0,0.0,69,0.00,,,0.00,weatherlink.com 1.10,2013-02-24 05:48:00,